Wetterdaten: Dienstag, 19.11.2013
Datum Zeit Temperatur Luftfeuchte Luftdruck Regen Wind Richtung Richtung Taupunkt Windchill Windben
19.11.2013 00:00 -0,5 C 96 % 1009,1 hPa 0,0 l/m 1,6 km/h (1 Bft) W-SW 247 -1,1 C -0,4 C 0,0 km/h (0 Bft)
19.11.2013 00:05 -0,7 C 96 % 1009,0 hPa 0,0 l/m 0,2 km/h (0 Bft) N-NW 337 -1,3 C -0,7 C 2,3 km/h (1 Bft)
19.11.2013 00:08 -0,4 C 96 % 1009,0 hPa 0,0 l/m 0,8 km/h (0 Bft) NO 45 -1,0 C -0,8 C 3,4 km/h (1 Bft)
19.11.2013 00:10 -0,4 C 96 % 1009,0 hPa 0,0 l/m 0,8 km/h (0 Bft) NO 45 -1,0 C -0,8 C 3,4 km/h (1 Bft)
19.11.2013 00:15 1,3 C 96 % 1009,0 hPa 0,0 l/m 4,5 km/h (1 Bft) O-SO 112 0,7 C -1,1 C 6,9 km/h (2 Bft)
19.11.2013 00:20 1,0 C 96 % 1009,0 hPa 0,0 l/m 4,8 km/h (1 Bft) NO 45 0,4 C -0,7 C 1,9 km/h (1 Bft)
19.11.2013 00:25 0,1 C 96 % 1008,7 hPa 0,0 l/m 2,3 km/h (1 Bft) N-NW 337 -0,5 C 0,6 C 0,0 km/h (0 Bft)
19.11.2013 00:30 0,1 C 96 % 1008,7 hPa 0,0 l/m 0,8 km/h (0 Bft) NW 315 -0,5 C 0,2 C 0,0 km/h (0 Bft)
19.11.2013 00:35 -0,3 C 96 % 1008,7 hPa 0,0 l/m 0,5 km/h (0 Bft) N-NO 22 -0,9 C -0,1 C 2,3 km/h (1 Bft)
19.11.2013 00:40 0,6 C 96 % 1008,7 hPa 0,0 l/m 1,9 km/h (1 Bft) W-NW 292 0,0 C 0,0 C 4,0 km/h (1 Bft)
19.11.2013 00:45 0,3 C 96 % 1008,2 hPa 0,0 l/m 2,3 km/h (1 Bft) W-SW 247 -0,3 C 0,6 C 0,0 km/h (0 Bft)
19.11.2013 00:50 0,0 C 96 % 1008,2 hPa 0,0 l/m 1,8 km/h (1 Bft) S 180 -0,6 C 0,4 C 4,2 km/h (1 Bft)
19.11.2013 00:55 -0,2 C 96 % 1008,2 hPa 0,0 l/m 1,4 km/h (1 Bft) N-NW 337 -0,8 C 0,0 C 2,4 km/h (1 Bft)
19.11.2013 01:00 -0,3 C 96 % 1008,2 hPa 0,0 l/m 1,1 km/h (1 Bft) N 360 -0,9 C -0,3 C 0,0 km/h (0 Bft)
19.11.2013 01:05 -0,2 C 96 % 1008,0 hPa 0,0 l/m 0,8 km/h (0 Bft) O 90 -0,8 C -0,3 C 0,0 km/h (0 Bft)
19.11.2013 01:10 0,0 C 96 % 1008,0 hPa 0,0 l/m 0,8 km/h (0 Bft) NO 45 -0,6 C -0,1 C 2,4 km/h (1 Bft)
19.11.2013 01:15 0,6 C 96 % 1008,0 hPa 0,0 l/m 0,8 km/h (0 Bft) S 180 0,0 C 0,3 C 4,5 km/h (1 Bft)
19.11.2013 01:20 0,5 C 96 % 1008,0 hPa 0,0 l/m 1,4 km/h (1 Bft) NO 45 -0,1 C 0,3 C 1,9 km/h (1 Bft)
19.11.2013 01:25 -0,3 C 96 % 1007,9 hPa 0,0 l/m 1,9 km/h (1 Bft) S-SO 157 -0,9 C 0,3 C 3,1 km/h (1 Bft)
19.11.2013 01:30 0,0 C 96 % 1007,9 hPa 0,0 l/m 2,4 km/h (1 Bft) O 90 -0,6 C -0,2 C 6,1 km/h (2 Bft)
19.11.2013 01:35 0,9 C 97 % 1007,9 hPa 0,0 l/m 4,2 km/h (1 Bft) O 90 0,5 C -1,1 C 5,3 km/h (1 Bft)
19.11.2013 01:40 1,0 C 96 % 1007,9 hPa 0,0 l/m 3,7 km/h (1 Bft) S 180 0,4 C -0,6 C 5,0 km/h (1 Bft)
19.11.2013 01:45 1,0 C 96 % 1007,8 hPa 0,0 l/m 2,6 km/h (1 Bft) O-SO 112 0,4 C 0,3 C 2,1 km/h (1 Bft)
19.11.2013 01:50 0,0 C 96 % 1007,8 hPa 0,0 l/m 2,4 km/h (1 Bft) W-SW 247 -0,6 C 0,5 C 0,0 km/h (0 Bft)
19.11.2013 01:55 -0,3 C 96 % 1007,8 hPa 0,0 l/m 1,9 km/h (1 Bft) NW 315 -0,9 C -0,1 C 2,3 km/h (1 Bft)
19.11.2013 02:00 -0,3 C 96 % 1007,8 hPa 0,0 l/m 2,1 km/h (1 Bft) N-NO 22 -0,9 C -0,4 C 3,2 km/h (1 Bft)
19.11.2013 02:05 -0,3 C 96 % 1007,6 hPa 0,0 l/m 1,4 km/h (1 Bft) N-NO 22 -0,9 C -0,3 C 0,0 km/h (0 Bft)
19.11.2013 02:10 0,0 C 96 % 1007,6 hPa 0,0 l/m 0,6 km/h (0 Bft) N-NO 22 -0,6 C -0,3 C 0,0 km/h (0 Bft)
19.11.2013 02:15 -0,2 C 96 % 1007,6 hPa 0,0 l/m 0,0 km/h (0 Bft) N 360 -0,8 C -0,3 C 0,0 km/h (0 Bft)
19.11.2013 02:20 -0,5 C 96 % 1007,6 hPa 0,0 l/m 0,2 km/h (0 Bft) N 360 -1,1 C -0,4 C 0,0 km/h (0 Bft)
19.11.2013 02:25 -0,5 C 96 % 1007,4 hPa 0,0 l/m 0,5 km/h (0 Bft) N 360 -1,1 C -0,5 C 0,0 km/h (0 Bft)
19.11.2013 02:30 0,0 C 96 % 1007,4 hPa 0,0 l/m 1,1 km/h (1 Bft) NO 45 -0,6 C -0,2 C 0,0 km/h (0 Bft)
19.11.2013 02:35 0,3 C 96 % 1007,4 hPa 0,0 l/m 1,0 km/h (0 Bft) N 360 -0,3 C 0,1 C 0,0 km/h (0 Bft)
19.11.2013 02:40 0,1 C 96 % 1007,4 hPa 0,0 l/m 1,3 km/h (1 Bft) NO 45 -0,5 C 0,2 C 2,9 km/h (1 Bft)
19.11.2013 02:45 0,5 C 97 % 1007,1 hPa 0,0 l/m 1,6 km/h (1 Bft) S 180 0,1 C 0,5 C 3,2 km/h (1 Bft)
19.11.2013 02:50 -0,1 C 96 % 1007,1 hPa 0,0 l/m 1,1 km/h (1 Bft) S 180 -0,7 C 0,3 C 0,0 km/h (0 Bft)
19.11.2013 02:55 -0,3 C 96 % 1007,1 hPa 0,0 l/m 0,5 km/h (0 Bft) N-NW 337 -0,9 C -0,1 C 2,6 km/h (1 Bft)
19.11.2013 03:00 -0,4 C 96 % 1007,1 hPa 0,0 l/m 0,2 km/h (0 Bft) N-NO 22 -1,0 C -0,3 C 0,0 km/h (0 Bft)
19.11.2013 03:05 -0,2 C 96 % 1006,8 hPa 0,0 l/m 0,2 km/h (0 Bft) N-NO 22 -0,8 C 0,1 C 0,0 km/h (0 Bft)
19.11.2013 03:10 -0,4 C 96 % 1006,8 hPa 0,0 l/m 0,2 km/h (0 Bft) N 360 -1,0 C 0,1 C 0,0 km/h (0 Bft)
19.11.2013 03:15 -0,7 C 96 % 1006,8 hPa 0,0 l/m 0,0 km/h (0 Bft) N-NO 22 -1,3 C -0,4 C 0,0 km/h (0 Bft)
19.11.2013 03:20 -0,5 C 96 % 1006,8 hPa 0,0 l/m 0,0 km/h (0 Bft) N-NW 337 -1,1 C -0,6 C 0,0 km/h (0 Bft)
19.11.2013 03:25 -0,5 C 96 % 1006,6 hPa 0,0 l/m 0,6 km/h (0 Bft) O-NO 67 -1,1 C -0,7 C 0,0 km/h (0 Bft)
19.11.2013 03:30 0,1 C 96 % 1006,6 hPa 0,0 l/m 1,0 km/h (0 Bft) S 180 -0,5 C -0,4 C 0,0 km/h (0 Bft)
19.11.2013 03:35 0,0 C 96 % 1006,6 hPa 0,0 l/m 0,3 km/h (0 Bft) S 180 -0,6 C 0,1 C 0,0 km/h (0 Bft)
19.11.2013 03:40 -0,1 C 96 % 1006,6 hPa 0,0 l/m 0,3 km/h (0 Bft) N-NO 22 -0,7 C 0,1 C 0,0 km/h (0 Bft)
19.11.2013 03:45 0,4 C 97 % 1006,2 hPa 0,0 l/m 0,3 km/h (0 Bft) N-NO 22 -0,0 C 0,2 C 1,6 km/h (1 Bft)
19.11.2013 03:50 0,3 C 97 % 1006,2 hPa 0,0 l/m 0,8 km/h (0 Bft) S 180 -0,1 C 0,4 C 2,7 km/h (1 Bft)
19.11.2013 03:55 0,3 C 97 % 1006,2 hPa 0,0 l/m 1,1 km/h (1 Bft) S 180 -0,1 C 0,8 C 0,0 km/h (0 Bft)
19.11.2013 04:00 -0,2 C 96 % 1006,2 hPa 0,0 l/m 0,8 km/h (0 Bft) O-NO 67 -0,8 C 0,7 C 0,0 km/h (0 Bft)
19.11.2013 04:05 -0,3 C 96 % 1006,1 hPa 0,0 l/m 0,3 km/h (0 Bft) O-NO 67 -0,9 C 0,2 C 2,4 km/h (1 Bft)
19.11.2013 04:10 0,3 C 97 % 1006,1 hPa 0,0 l/m 0,8 km/h (0 Bft) O-NO 67 -0,1 C 0,2 C 1,9 km/h (1 Bft)
19.11.2013 04:15 0,2 C 97 % 1006,1 hPa 0,0 l/m 1,1 km/h (1 Bft) W-SW 247 -0,2 C 0,4 C 0,0 km/h (0 Bft)
19.11.2013 04:20 0,0 C 97 % 1006,1 hPa 0,0 l/m 0,8 km/h (0 Bft) S 180 -0,4 C 0,2 C 2,1 km/h (1 Bft)
19.11.2013 04:25 0,4 C 97 % 1006,2 hPa 0,0 l/m 1,1 km/h (1 Bft) S-SO 157 -0,0 C 0,1 C 5,0 km/h (1 Bft)
19.11.2013 04:30 0,9 C 97 % 1006,2 hPa 0,0 l/m 1,8 km/h (1 Bft) S 180 0,5 C 0,4 C 2,4 km/h (1 Bft)
19.11.2013 04:35 0,6 C 97 % 1006,2 hPa 0,0 l/m 1,6 km/h (1 Bft) S-SW 202 0,2 C 0,7 C 0,0 km/h (0 Bft)
19.11.2013 04:40 0,5 C 97 % 1006,2 hPa 0,0 l/m 0,6 km/h (0 Bft) O-SO 112 0,1 C 0,6 C 0,0 km/h (0 Bft)
19.11.2013 04:45 0,3 C 97 % 1005,9 hPa 0,0 l/m 0,0 km/h (0 Bft) SW 225 -0,1 C 0,6 C 0,0 km/h (0 Bft)
19.11.2013 04:50 0,4 C 97 % 1005,9 hPa 0,0 l/m 0,2 km/h (0 Bft) O-NO 67 -0,0 C 0,5 C 3,2 km/h (1 Bft)
19.11.2013 04:55 0,9 C 97 % 1005,9 hPa 0,0 l/m 1,3 km/h (1 Bft) N-NO 22 0,5 C 0,6 C 3,7 km/h (1 Bft)
19.11.2013 05:00 0,6 C 97 % 1005,9 hPa 0,0 l/m 1,4 km/h (1 Bft) S-SW 202 0,2 C 0,6 C 1,9 km/h (1 Bft)
19.11.2013 05:05 0,1 C 97 % 1005,5 hPa 0,0 l/m 0,6 km/h (0 Bft) W-SW 247 -0,3 C 0,6 C 1,9 km/h (1 Bft)
19.11.2013 05:08 -0,1 C 96 % 1005,5 hPa 0,0 l/m 1,3 km/h (1 Bft) S-SO 157 -0,7 C 0,2 C 3,9 km/h (1 Bft)
19.11.2013 05:10 -0,1 C 96 % 1005,5 hPa 0,0 l/m 1,3 km/h (1 Bft) S-SO 157 -0,7 C 0,2 C 3,9 km/h (1 Bft)
19.11.2013 05:15 0,5 C 97 % 1005,5 hPa 0,0 l/m 2,1 km/h (1 Bft) O 90 0,1 C 0,2 C 2,6 km/h (1 Bft)
19.11.2013 05:20 0,7 C 97 % 1005,5 hPa 0,0 l/m 1,6 km/h (1 Bft) N-NO 22 0,3 C 0,3 C 0,0 km/h (0 Bft)
19.11.2013 05:25 0,6 C 97 % 1005,6 hPa 0,0 l/m 0,2 km/h (0 Bft) S-SO 157 0,2 C 0,3 C 0,0 km/h (0 Bft)
19.11.2013 05:30 0,3 C 97 % 1005,6 hPa 0,0 l/m 0,0 km/h (0 Bft) N-NO 22 -0,1 C 0,3 C 0,0 km/h (0 Bft)
19.11.2013 05:35 0,1 C 97 % 1005,6 hPa 0,0 l/m 0,0 km/h (0 Bft) O-NO 67 -0,3 C 0,2 C 0,0 km/h (0 Bft)
19.11.2013 05:40 0,7 C 97 % 1005,6 hPa 0,0 l/m 0,6 km/h (0 Bft) N-NO 22 0,3 C 0,3 C 0,0 km/h (0 Bft)
19.11.2013 05:45 0,9 C 97 % 1005,5 hPa 0,0 l/m 0,6 km/h (0 Bft) O-SO 112 0,5 C 0,7 C 0,0 km/h (0 Bft)
19.11.2013 05:50 0,6 C 97 % 1005,5 hPa 0,0 l/m 0,3 km/h (0 Bft) S 180 0,2 C 0,8 C 0,0 km/h (0 Bft)
19.11.2013 05:55 0,1 C 97 % 1005,5 hPa 0,0 l/m 0,2 km/h (0 Bft) S-SO 157 -0,3 C 0,5 C 0,0 km/h (0 Bft)
19.11.2013 06:00 0,5 C 97 % 1005,5 hPa 0,0 l/m 0,3 km/h (0 Bft) N 360 0,1 C 0,4 C 2,1 km/h (1 Bft)
19.11.2013 06:05 0,5 C 97 % 1005,1 hPa 0,0 l/m 1,1 km/h (1 Bft) NO 45 0,1 C 0,3 C 3,4 km/h (1 Bft)
19.11.2013 06:10 0,8 C 97 % 1005,1 hPa 0,0 l/m 1,6 km/h (1 Bft) O 90 0,4 C 0,4 C 2,6 km/h (1 Bft)
19.11.2013 06:15 0,5 C 97 % 1005,1 hPa 0,0 l/m 1,0 km/h (0 Bft) N-NO 22 0,1 C 0,6 C 0,0 km/h (0 Bft)
19.11.2013 06:20 0,7 C 97 % 1005,1 hPa 0,0 l/m 0,8 km/h (0 Bft) N 360 0,3 C 0,6 C 0,0 km/h (0 Bft)
19.11.2013 06:25 0,9 C 97 % 1005,0 hPa 0,0 l/m 1,3 km/h (1 Bft) O-NO 67 0,5 C 0,9 C 0,0 km/h (0 Bft)
19.11.2013 06:30 0,7 C 97 % 1005,0 hPa 0,0 l/m 1,3 km/h (1 Bft) S 180 0,3 C 1,0 C 3,7 km/h (1 Bft)
19.11.2013 06:35 0,5 C 97 % 1005,0 hPa 0,0 l/m 0,8 km/h (0 Bft) N-NO 22 0,1 C 0,9 C 0,0 km/h (0 Bft)
19.11.2013 06:40 0,3 C 97 % 1005,0 hPa 0,0 l/m 1,0 km/h (0 Bft) N 360 -0,1 C 0,8 C 2,7 km/h (1 Bft)
19.11.2013 06:45 0,6 C 97 % 1005,1 hPa 0,0 l/m 1,3 km/h (1 Bft) NO 45 0,2 C 0,7 C 2,6 km/h (1 Bft)
19.11.2013 06:50 0,8 C 97 % 1005,1 hPa 0,0 l/m 1,1 km/h (1 Bft) NO 45 0,4 C 1,0 C 1,9 km/h (1 Bft)
19.11.2013 06:55 0,7 C 97 % 1005,1 hPa 0,0 l/m 1,8 km/h (1 Bft) S 180 0,3 C 1,1 C 1,6 km/h (1 Bft)
19.11.2013 07:00 1,1 C 97 % 1005,1 hPa 0,0 l/m 2,4 km/h (1 Bft) NO 45 0,7 C 1,1 C 4,5 km/h (1 Bft)
19.11.2013 07:05 1,3 C 97 % 1005,1 hPa 0,0 l/m 1,8 km/h (1 Bft) O-NO 67 0,9 C 1,4 C 3,9 km/h (1 Bft)
19.11.2013 07:10 1,1 C 97 % 1005,1 hPa 0,0 l/m 0,8 km/h (0 Bft) O 90 0,7 C 1,5 C 0,0 km/h (0 Bft)
19.11.2013 07:15 1,1 C 97 % 1005,1 hPa 0,0 l/m 0,5 km/h (0 Bft) S 180 0,7 C 1,7 C 0,0 km/h (0 Bft)
19.11.2013 07:20 1,0 C 97 % 1005,1 hPa 0,0 l/m 1,0 km/h (0 Bft) S-SW 202 0,6 C 1,7 C 2,6 km/h (1 Bft)
19.11.2013 07:25 1,2 C 97 % 1005,2 hPa 0,0 l/m 1,4 km/h (1 Bft) N-NO 22 0,8 C 1,5 C 3,4 km/h (1 Bft)
19.11.2013 07:30 1,7 C 97 % 1005,2 hPa 0,0 l/m 1,9 km/h (1 Bft) NO 45 1,3 C 2,0 C 1,6 km/h (1 Bft)
19.11.2013 07:35 2,8 C 97 % 1005,2 hPa 0,0 l/m 1,9 km/h (1 Bft) N 360 2,4 C 3,3 C 1,8 km/h (1 Bft)
19.11.2013 07:40 3,3 C 96 % 1005,2 hPa 0,0 l/m 1,8 km/h (1 Bft) N-NO 22 2,7 C 4,2 C 4,0 km/h (1 Bft)
19.11.2013 07:45 4,3 C 96 % 1005,1 hPa 0,0 l/m 2,6 km/h (1 Bft) N-NO 22 3,7 C 5,4 C 5,3 km/h (1 Bft)
19.11.2013 07:50 4,9 C 96 % 1005,1 hPa 0,0 l/m 3,4 km/h (1 Bft) N 360 4,3 C 6,1 C 6,3 km/h (2 Bft)
19.11.2013 07:55 3,9 C 96 % 1005,1 hPa 0,0 l/m 3,4 km/h (1 Bft) S-SO 157 3,3 C 6,2 C 2,6 km/h (1 Bft)
19.11.2013 08:00 3,5 C 96 % 1005,1 hPa 0,0 l/m 2,4 km/h (1 Bft) S 180 2,9 C 5,7 C 2,9 km/h (1 Bft)
19.11.2013 08:05 3,3 C 96 % 1005,3 hPa 0,0 l/m 1,9 km/h (1 Bft) SO 135 2,7 C 5,2 C 2,6 km/h (1 Bft)
19.11.2013 08:10 3,9 C 96 % 1005,3 hPa 0,0 l/m 2,7 km/h (1 Bft) N 360 3,3 C 5,2 C 7,1 km/h (2 Bft)
19.11.2013 08:15 3,8 C 95 % 1005,3 hPa 0,0 l/m 4,0 km/h (1 Bft) S 180 3,1 C 5,1 C 4,3 km/h (1 Bft)
19.11.2013 08:20 3,5 C 95 % 1005,3 hPa 0,0 l/m 3,9 km/h (1 Bft) S-SO 157 2,8 C 4,8 C 4,5 km/h (1 Bft)
19.11.2013 08:25 4,0 C 95 % 1005,1 hPa 0,0 l/m 3,1 km/h (1 Bft) O 90 3,3 C 5,1 C 1,6 km/h (1 Bft)
19.11.2013 08:30 4,1 C 95 % 1005,1 hPa 0,0 l/m 2,3 km/h (1 Bft) S-SO 157 3,4 C 5,2 C 0,0 km/h (0 Bft)
19.11.2013 08:35 4,0 C 95 % 1005,1 hPa 0,0 l/m 0,8 km/h (0 Bft) S 180 3,3 C 5,4 C 1,8 km/h (1 Bft)
19.11.2013 08:40 3,8 C 95 % 1005,1 hPa 0,0 l/m 0,5 km/h (0 Bft) S 180 3,1 C 5,3 C 0,0 km/h (0 Bft)
19.11.2013 08:45 3,9 C 95 % 1005,1 hPa 0,0 l/m 0,5 km/h (0 Bft) NO 45 3,2 C 5,2 C 0,0 km/h (0 Bft)
19.11.2013 08:50 3,9 C 95 % 1005,1 hPa 0,0 l/m 0,5 km/h (0 Bft) O-NO 67 3,2 C 5,2 C 1,9 km/h (1 Bft)
19.11.2013 08:55 4,5 C 94 % 1005,1 hPa 0,0 l/m 0,2 km/h (0 Bft) NO 45 3,6 C 5,5 C 0,0 km/h (0 Bft)
19.11.2013 09:00 4,9 C 94 % 1005,1 hPa 0,0 l/m 0,2 km/h (0 Bft) N-NO 22 4,0 C 5,8 C 0,0 km/h (0 Bft)
19.11.2013 09:05 4,9 C 94 % 1004,9 hPa 0,0 l/m 0,5 km/h (0 Bft) SO 135 4,0 C 6,2 C 0,0 km/h (0 Bft)
19.11.2013 09:10 5,1 C 94 % 1004,9 hPa 0,0 l/m 0,6 km/h (0 Bft) O-SO 112 4,2 C 6,4 C 0,0 km/h (0 Bft)
19.11.2013 09:15 5,3 C 94 % 1004,9 hPa 0,0 l/m 0,3 km/h (0 Bft) NO 45 4,4 C 6,6 C 0,0 km/h (0 Bft)
19.11.2013 09:20 5,6 C 94 % 1004,9 hPa 0,0 l/m 0,5 km/h (0 Bft) O 90 4,7 C 6,9 C 4,0 km/h (1 Bft)
19.11.2013 09:25 5,9 C 94 % 1004,6 hPa 0,0 l/m 1,3 km/h (1 Bft) W-SW 247 5,0 C 7,5 C 0,0 km/h (0 Bft)
19.11.2013 09:30 5,8 C 94 % 1004,6 hPa 0,0 l/m 1,3 km/h (1 Bft) O-NO 67 4,9 C 7,4 C 0,0 km/h (0 Bft)
19.11.2013 09:35 6,0 C 92 % 1004,6 hPa 0,0 l/m 0,6 km/h (0 Bft) NO 45 4,8 C 7,3 C 2,1 km/h (1 Bft)
19.11.2013 09:40 6,0 C 92 % 1004,6 hPa 0,0 l/m 1,0 km/h (0 Bft) N-NW 337 4,8 C 7,3 C 2,7 km/h (1 Bft)
19.11.2013 09:45 6,1 C 91 % 1004,9 hPa 0,0 l/m 1,1 km/h (1 Bft) N 360 4,7 C 7,4 C 2,6 km/h (1 Bft)
19.11.2013 09:50 6,3 C 91 % 1004,9 hPa 0,0 l/m 1,8 km/h (1 Bft) N 360 4,9 C 7,6 C 2,4 km/h (1 Bft)
19.11.2013 09:55 6,6 C 91 % 1004,9 hPa 0,0 l/m 2,7 km/h (1 Bft) N 360 5,2 C 7,9 C 2,7 km/h (1 Bft)
19.11.2013 10:00 6,7 C 90 % 1004,9 hPa 0,0 l/m 2,1 km/h (1 Bft) S-SW 202 5,2 C 8,1 C 2,6 km/h (1 Bft)
19.11.2013 10:05 6,0 C 90 % 1004,8 hPa 0,0 l/m 1,3 km/h (1 Bft) O 90 4,5 C 7,6 C 0,0 km/h (0 Bft)
19.11.2013 10:08 5,9 C 91 % 1004,8 hPa 0,0 l/m 0,8 km/h (0 Bft) O-NO 67 4,5 C 7,4 C 0,0 km/h (0 Bft)
19.11.2013 10:10 5,9 C 91 % 1004,8 hPa 0,0 l/m 0,8 km/h (0 Bft) O-NO 67 4,5 C 7,4 C 0,0 km/h (0 Bft)
19.11.2013 10:15 5,9 C 91 % 1004,8 hPa 0,0 l/m 0,0 km/h (0 Bft) S-SO 157 4,5 C 7,2 C 0,0 km/h (0 Bft)
19.11.2013 10:20 6,0 C 90 % 1004,8 hPa 0,0 l/m 0,0 km/h (0 Bft) S-SO 157 4,5 C 7,2 C 0,0 km/h (0 Bft)
19.11.2013 10:25 5,8 C 92 % 1004,7 hPa 0,0 l/m 0,2 km/h (0 Bft) S 180 4,6 C 7,0 C 0,0 km/h (0 Bft)
19.11.2013 10:30 5,8 C 92 % 1004,7 hPa 0,0 l/m 0,2 km/h (0 Bft) S 180 4,6 C 7,0 C 0,0 km/h (0 Bft)
19.11.2013 10:35 6,0 C 90 % 1004,7 hPa 0,0 l/m 0,0 km/h (0 Bft) N-NO 22 4,5 C 7,0 C 0,0 km/h (0 Bft)
19.11.2013 10:40 6,0 C 90 % 1004,7 hPa 0,0 l/m 0,0 km/h (0 Bft) S 180 4,5 C 7,1 C 0,0 km/h (0 Bft)
19.11.2013 10:45 5,8 C 92 % 1004,8 hPa 0,0 l/m 0,3 km/h (0 Bft) W 270 4,6 C 7,0 C 2,1 km/h (1 Bft)
19.11.2013 10:50 5,7 C 92 % 1004,8 hPa 0,0 l/m 0,3 km/h (0 Bft) S-SW 202 4,5 C 6,9 C 0,0 km/h (0 Bft)
19.11.2013 10:55 5,3 C 91 % 1004,8 hPa 0,0 l/m 1,8 km/h (1 Bft) S-SO 157 4,0 C 6,6 C 5,8 km/h (2 Bft)
19.11.2013 11:00 4,9 C 91 % 1004,8 hPa 0,0 l/m 3,4 km/h (1 Bft) S 180 3,6 C 6,2 C 5,5 km/h (1 Bft)
19.11.2013 11:05 4,5 C 90 % 1005,2 hPa 0,0 l/m 3,5 km/h (1 Bft) S 180 3,0 C 5,4 C 2,3 km/h (1 Bft)
19.11.2013 11:10 4,2 C 90 % 1005,2 hPa 0,0 l/m 2,1 km/h (1 Bft) W-NW 292 2,7 C 5,4 C 0,0 km/h (0 Bft)
19.11.2013 11:15 4,2 C 90 % 1005,2 hPa 0,0 l/m 0,5 km/h (0 Bft) W-SW 247 2,7 C 5,2 C 0,0 km/h (0 Bft)
19.11.2013 11:20 4,2 C 90 % 1005,2 hPa 0,0 l/m 0,3 km/h (0 Bft) S-SW 202 2,7 C 5,2 C 3,7 km/h (1 Bft)
19.11.2013 11:25 4,1 C 90 % 1004,8 hPa 0,0 l/m 1,8 km/h (1 Bft) S 180 2,6 C 4,9 C 0,0 km/h (0 Bft)
19.11.2013 11:30 4,2 C 91 % 1004,8 hPa 0,0 l/m 1,8 km/h (1 Bft) S 180 2,9 C 4,9 C 0,0 km/h (0 Bft)
19.11.2013 11:35 4,1 C 91 % 1004,8 hPa 0,0 l/m 1,8 km/h (1 Bft) S 180 2,8 C 4,9 C 3,9 km/h (1 Bft)
19.11.2013 11:40 4,0 C 91 % 1004,8 hPa 0,0 l/m 2,9 km/h (1 Bft) S-SO 157 2,7 C 4,8 C 3,2 km/h (1 Bft)
19.11.2013 11:45 4,0 C 91 % 1004,4 hPa 0,0 l/m 2,6 km/h (1 Bft) SW 225 2,7 C 4,7 C 2,4 km/h (1 Bft)
19.11.2013 11:50 4,0 C 91 % 1004,4 hPa 0,0 l/m 2,7 km/h (1 Bft) S 180 2,7 C 4,7 C 5,0 km/h (1 Bft)
19.11.2013 11:55 4,0 C 91 % 1004,4 hPa 0,0 l/m 3,1 km/h (1 Bft) O-SO 112 2,7 C 4,7 C 5,1 km/h (1 Bft)
19.11.2013 12:00 4,1 C 91 % 1004,4 hPa 0,0 l/m 2,6 km/h (1 Bft) S 180 2,8 C 4,8 C 1,8 km/h (1 Bft)
19.11.2013 12:05 4,3 C 92 % 1004,4 hPa 0,0 l/m 0,8 km/h (0 Bft) O-SO 112 3,1 C 5,1 C 0,0 km/h (0 Bft)
19.11.2013 12:10 4,4 C 92 % 1004,4 hPa 0,0 l/m 0,3 km/h (0 Bft) SW 225 3,2 C 5,2 C 0,0 km/h (0 Bft)
19.11.2013 12:15 4,6 C 92 % 1004,4 hPa 0,0 l/m 0,3 km/h (0 Bft) SW 225 3,4 C 5,5 C 0,0 km/h (0 Bft)
19.11.2013 12:20 4,7 C 92 % 1004,4 hPa 0,0 l/m 0,3 km/h (0 Bft) S-SW 202 3,5 C 5,7 C 0,0 km/h (0 Bft)
19.11.2013 12:25 4,7 C 92 % 1004,2 hPa 0,0 l/m 1,3 km/h (1 Bft) S 180 3,5 C 5,8 C 3,7 km/h (1 Bft)
19.11.2013 12:30 4,8 C 92 % 1004,2 hPa 0,0 l/m 2,3 km/h (1 Bft) W-SW 247 3,6 C 5,8 C 2,7 km/h (1 Bft)
19.11.2013 12:35 4,8 C 92 % 1004,2 hPa 0,0 l/m 2,6 km/h (1 Bft) SW 225 3,6 C 5,8 C 3,1 km/h (1 Bft)
19.11.2013 12:40 4,9 C 92 % 1004,2 hPa 0,0 l/m 1,9 km/h (1 Bft) S 180 3,7 C 5,8 C 1,6 km/h (1 Bft)
19.11.2013 12:45 4,8 C 91 % 1004,5 hPa 0,0 l/m 1,1 km/h (1 Bft) W-NW 292 3,5 C 5,9 C 2,1 km/h (1 Bft)
19.11.2013 12:50 4,8 C 91 % 1004,5 hPa 0,0 l/m 1,4 km/h (1 Bft) W-NW 292 3,5 C 5,8 C 2,9 km/h (1 Bft)
19.11.2013 12:55 5,0 C 91 % 1004,5 hPa 0,0 l/m 3,2 km/h (1 Bft) W 270 3,7 C 5,8 C 5,8 km/h (2 Bft)
19.11.2013 13:00 4,9 C 91 % 1004,5 hPa 0,0 l/m 3,4 km/h (1 Bft) W-SW 247 3,6 C 5,6 C 1,8 km/h (1 Bft)
19.11.2013 13:05 4,9 C 91 % 1004,4 hPa 0,0 l/m 2,9 km/h (1 Bft) W-SW 247 3,6 C 5,6 C 3,9 km/h (1 Bft)
19.11.2013 13:10 4,8 C 91 % 1004,4 hPa 0,0 l/m 2,7 km/h (1 Bft) S 180 3,5 C 5,5 C 4,8 km/h (1 Bft)
19.11.2013 13:15 4,8 C 91 % 1004,4 hPa 0,0 l/m 2,7 km/h (1 Bft) SW 225 3,5 C 5,5 C 5,8 km/h (2 Bft)
19.11.2013 13:20 4,7 C 91 % 1004,4 hPa 0,0 l/m 3,1 km/h (1 Bft) W-SW 247 3,4 C 5,5 C 7,2 km/h (2 Bft)
19.11.2013 13:25 4,6 C 90 % 1004,4 hPa 0,0 l/m 3,5 km/h (1 Bft) S 180 3,1 C 5,1 C 3,2 km/h (1 Bft)
19.11.2013 13:30 4,4 C 90 % 1004,4 hPa 0,0 l/m 3,4 km/h (1 Bft) W-SW 247 2,9 C 5,1 C 4,2 km/h (1 Bft)
19.11.2013 13:35 4,3 C 90 % 1004,4 hPa 0,0 l/m 3,9 km/h (1 Bft) W-SW 247 2,8 C 4,3 C 5,8 km/h (2 Bft)
19.11.2013 13:40 4,2 C 91 % 1004,4 hPa 0,0 l/m 2,7 km/h (1 Bft) W-SW 247 2,9 C 4,7 C 1,8 km/h (1 Bft)
19.11.2013 13:45 4,1 C 91 % 1004,2 hPa 0,0 l/m 1,4 km/h (1 Bft) S-SW 202 2,8 C 4,5 C 2,4 km/h (1 Bft)
19.11.2013 13:50 4,0 C 91 % 1004,2 hPa 0,0 l/m 1,1 km/h (1 Bft) SO 135 2,7 C 4,4 C 1,6 km/h (1 Bft)
19.11.2013 13:55 3,9 C 91 % 1004,2 hPa 0,0 l/m 1,1 km/h (1 Bft) W-SW 247 2,6 C 4,4 C 0,0 km/h (0 Bft)
19.11.2013 14:00 4,0 C 91 % 1004,2 hPa 0,0 l/m 0,8 km/h (0 Bft) W-SW 247 2,7 C 4,4 C 0,0 km/h (0 Bft)
19.11.2013 14:05 3,8 C 91 % 1004,4 hPa 0,0 l/m 0,3 km/h (0 Bft) W 270 2,5 C 4,4 C 2,6 km/h (1 Bft)
19.11.2013 14:10 3,6 C 91 % 1004,4 hPa 0,0 l/m 0,5 km/h (0 Bft) W-NW 292 2,3 C 4,4 C 0,0 km/h (0 Bft)
19.11.2013 14:15 3,5 C 90 % 1004,4 hPa 0,0 l/m 1,6 km/h (1 Bft) W-NW 292 2,0 C 4,2 C 4,0 km/h (1 Bft)
19.11.2013 14:20 3,4 C 90 % 1004,4 hPa 0,0 l/m 2,9 km/h (1 Bft) O-NO 67 1,9 C 4,0 C 4,7 km/h (1 Bft)
19.11.2013 14:25 3,3 C 90 % 1004,2 hPa 0,0 l/m 3,2 km/h (1 Bft) W 270 1,8 C 3,6 C 3,7 km/h (1 Bft)
19.11.2013 14:30 3,5 C 90 % 1004,2 hPa 0,0 l/m 2,4 km/h (1 Bft) N 360 2,0 C 3,8 C 2,4 km/h (1 Bft)
19.11.2013 14:35 3,5 C 90 % 1004,2 hPa 0,0 l/m 0,6 km/h (0 Bft) W-NW 292 2,0 C 3,9 C 2,3 km/h (1 Bft)
19.11.2013 14:40 3,4 C 90 % 1004,2 hPa 0,0 l/m 1,1 km/h (1 Bft) N-NW 337 1,9 C 3,9 C 4,5 km/h (1 Bft)
19.11.2013 14:45 3,3 C 89 % 1004,2 hPa 0,0 l/m 2,6 km/h (1 Bft) NW 315 1,7 C 3,8 C 3,9 km/h (1 Bft)
19.11.2013 14:50 3,2 C 90 % 1004,2 hPa 0,0 l/m 2,7 km/h (1 Bft) W-NW 292 1,7 C 3,6 C 2,6 km/h (1 Bft)
19.11.2013 14:55 3,2 C 90 % 1004,2 hPa 0,0 l/m 3,1 km/h (1 Bft) W-NW 292 1,7 C 3,4 C 3,5 km/h (1 Bft)
19.11.2013 15:00 3,3 C 90 % 1004,2 hPa 0,0 l/m 3,2 km/h (1 Bft) W 270 1,8 C 3,4 C 3,4 km/h (1 Bft)
19.11.2013 15:05 3,4 C 91 % 1004,4 hPa 0,0 l/m 2,7 km/h (1 Bft) SW 225 2,1 C 3,6 C 3,7 km/h (1 Bft)
19.11.2013 15:08 3,4 C 91 % 1004,4 hPa 0,0 l/m 2,6 km/h (1 Bft) W 270 2,1 C 3,6 C 3,5 km/h (1 Bft)
19.11.2013 15:10 3,4 C 91 % 1004,4 hPa 0,0 l/m 2,6 km/h (1 Bft) W 270 2,1 C 3,6 C 3,5 km/h (1 Bft)
19.11.2013 15:15 3,3 C 92 % 1004,4 hPa 0,0 l/m 2,9 km/h (1 Bft) W-NW 292 2,1 C 3,4 C 3,5 km/h (1 Bft)
19.11.2013 15:20 3,0 C 91 % 1004,4 hPa 0,0 l/m 2,9 km/h (1 Bft) W-NW 292 1,7 C 3,3 C 3,9 km/h (1 Bft)
19.11.2013 15:25 2,9 C 93 % 1004,7 hPa 0,0 l/m 2,9 km/h (1 Bft) W-SW 247 1,9 C 3,1 C 2,6 km/h (1 Bft)
19.11.2013 15:30 2,9 C 93 % 1004,7 hPa 0,0 l/m 3,1 km/h (1 Bft) W 270 1,9 C 2,9 C 4,3 km/h (1 Bft)
19.11.2013 15:35 2,7 C 93 % 1004,7 hPa 0,0 l/m 3,4 km/h (1 Bft) W 270 1,7 C 2,5 C 2,9 km/h (1 Bft)
19.11.2013 15:40 2,7 C 93 % 1004,7 hPa 0,0 l/m 3,2 km/h (1 Bft) N-NW 337 1,7 C 2,4 C 3,4 km/h (1 Bft)
19.11.2013 15:45 2,5 C 93 % 1004,6 hPa 0,0 l/m 3,1 km/h (1 Bft) W-NW 292 1,5 C 2,3 C 5,3 km/h (1 Bft)
19.11.2013 15:50 2,4 C 93 % 1004,6 hPa 0,0 l/m 3,2 km/h (1 Bft) W-NW 292 1,4 C 2,2 C 3,1 km/h (1 Bft)
19.11.2013 15:55 2,3 C 93 % 1004,6 hPa 0,0 l/m 3,2 km/h (1 Bft) W-SW 247 1,3 C 1,9 C 3,4 km/h (1 Bft)
19.11.2013 16:00 2,3 C 93 % 1004,6 hPa 0,0 l/m 2,7 km/h (1 Bft) W-SW 247 1,3 C 2,2 C 3,7 km/h (1 Bft)
19.11.2013 16:05 2,2 C 94 % 1004,9 hPa 0,0 l/m 2,6 km/h (1 Bft) S 180 1,3 C 2,2 C 3,4 km/h (1 Bft)
19.11.2013 16:10 2,1 C 94 % 1004,9 hPa 0,0 l/m 2,6 km/h (1 Bft) S 180 1,2 C 2,1 C 5,0 km/h (1 Bft)
19.11.2013 16:15 2,0 C 94 % 1004,9 hPa 0,0 l/m 3,2 km/h (1 Bft) S-SW 202 1,1 C 1,6 C 5,0 km/h (1 Bft)
19.11.2013 16:20 1,9 C 94 % 1004,9 hPa 0,0 l/m 2,7 km/h (1 Bft) S 180 1,0 C 1,8 C 0,0 km/h (0 Bft)
19.11.2013 16:25 1,9 C 94 % 1004,8 hPa 0,0 l/m 1,8 km/h (1 Bft) W-SW 247 1,0 C 1,8 C 2,1 km/h (1 Bft)
19.11.2013 16:30 1,9 C 94 % 1004,8 hPa 0,0 l/m 1,4 km/h (1 Bft) S 180 1,0 C 1,7 C 3,5 km/h (1 Bft)
19.11.2013 16:35 1,9 C 94 % 1004,8 hPa 0,0 l/m 1,9 km/h (1 Bft) SO 135 1,0 C 1,7 C 0,0 km/h (0 Bft)
19.11.2013 16:40 1,9 C 95 % 1004,8 hPa 0,0 l/m 1,6 km/h (1 Bft) S-SO 157 1,2 C 1,7 C 0,0 km/h (0 Bft)
19.11.2013 16:45 1,9 C 95 % 1004,9 hPa 0,0 l/m 0,5 km/h (0 Bft) S-SW 202 1,2 C 1,7 C 0,0 km/h (0 Bft)
19.11.2013 16:50 1,9 C 95 % 1004,9 hPa 0,0 l/m 0,6 km/h (0 Bft) S 180 1,2 C 1,7 C 3,1 km/h (1 Bft)
19.11.2013 16:55 1,8 C 95 % 1004,9 hPa 0,0 l/m 0,6 km/h (0 Bft) S 180 1,1 C 1,7 C 3,1 km/h (1 Bft)
19.11.2013 17:00 1,8 C 95 % 1004,9 hPa 0,0 l/m 2,1 km/h (1 Bft) S-SW 202 1,1 C 1,7 C 2,4 km/h (1 Bft)
19.11.2013 17:05 1,8 C 95 % 1004,8 hPa 0,0 l/m 2,1 km/h (1 Bft) S-SW 202 1,1 C 1,7 C 2,4 km/h (1 Bft)
19.11.2013 17:10 1,8 C 95 % 1004,8 hPa 0,0 l/m 1,8 km/h (1 Bft) S 180 1,1 C 1,7 C 2,3 km/h (1 Bft)
19.11.2013 17:15 1,8 C 95 % 1004,8 hPa 0,0 l/m 1,0 km/h (0 Bft) S 180 1,1 C 1,7 C 0,0 km/h (0 Bft)
19.11.2013 17:20 1,8 C 95 % 1004,8 hPa 0,0 l/m 0,3 km/h (0 Bft) S 180 1,1 C 1,7 C 0,0 km/h (0 Bft)
19.11.2013 17:25 1,8 C 95 % 1004,7 hPa 0,0 l/m 0,3 km/h (0 Bft) S 180 1,1 C 1,7 C 2,6 km/h (1 Bft)
19.11.2013 17:30 1,8 C 96 % 1004,7 hPa 0,0 l/m 1,0 km/h (0 Bft) S 180 1,2 C 1,7 C 1,8 km/h (1 Bft)
19.11.2013 17:35 1,8 C 96 % 1004,7 hPa 0,0 l/m 1,0 km/h (0 Bft) S 180 1,2 C 1,7 C 1,8 km/h (1 Bft)
19.11.2013 17:40 1,7 C 96 % 1004,7 hPa 0,0 l/m 1,0 km/h (0 Bft) S 180 1,1 C 1,7 C 1,8 km/h (1 Bft)
19.11.2013 17:45 1,7 C 96 % 1004,6 hPa 0,0 l/m 4,3 km/h (1 Bft) S 180 1,1 C 0,6 C 5,1 km/h (1 Bft)
19.11.2013 17:50 1,7 C 96 % 1004,6 hPa 0,0 l/m 3,9 km/h (1 Bft) S 180 1,1 C 0,8 C 3,4 km/h (1 Bft)
19.11.2013 17:55 1,7 C 96 % 1004,6 hPa 0,0 l/m 3,4 km/h (1 Bft) S 180 1,1 C 1,1 C 6,1 km/h (2 Bft)
19.11.2013 18:00 1,7 C 96 % 1004,6 hPa 0,0 l/m 3,1 km/h (1 Bft) O-SO 112 1,1 C 1,3 C 2,6 km/h (1 Bft)
19.11.2013 18:05 1,7 C 96 % 1004,6 hPa 0,0 l/m 3,2 km/h (1 Bft) SW 225 1,1 C 1,2 C 7,2 km/h (2 Bft)
19.11.2013 18:10 1,7 C 96 % 1004,6 hPa 0,0 l/m 3,4 km/h (1 Bft) S 180 1,1 C 1,1 C 4,3 km/h (1 Bft)
19.11.2013 18:15 1,7 C 96 % 1004,6 hPa 0,0 l/m 4,0 km/h (1 Bft) S 180 1,1 C 0,7 C 2,1 km/h (1 Bft)
19.11.2013 18:20 1,7 C 96 % 1004,6 hPa 0,0 l/m 4,0 km/h (1 Bft) S-SO 157 1,1 C 0,7 C 7,1 km/h (2 Bft)
19.11.2013 18:25 1,7 C 96 % 1004,2 hPa 0,0 l/m 4,2 km/h (1 Bft) S 180 1,1 C 0,6 C 8,4 km/h (2 Bft)
19.11.2013 18:30 1,7 C 96 % 1004,2 hPa 0,0 l/m 3,9 km/h (1 Bft) S 180 1,1 C 0,8 C 3,5 km/h (1 Bft)
19.11.2013 18:35 1,7 C 96 % 1004,2 hPa 0,0 l/m 3,1 km/h (1 Bft) S 180 1,1 C 1,3 C 4,3 km/h (1 Bft)
19.11.2013 18:40 1,7 C 96 % 1004,2 hPa 0,0 l/m 2,9 km/h (1 Bft) S 180 1,1 C 1,4 C 1,9 km/h (1 Bft)
19.11.2013 18:45 1,7 C 96 % 1004,3 hPa 0,0 l/m 1,8 km/h (1 Bft) S-SO 157 1,1 C 1,6 C 2,4 km/h (1 Bft)
19.11.2013 18:50 1,7 C 96 % 1004,3 hPa 0,0 l/m 1,4 km/h (1 Bft) S 180 1,1 C 1,7 C 4,3 km/h (1 Bft)
19.11.2013 18:55 1,7 C 96 % 1004,3 hPa 0,0 l/m 2,1 km/h (1 Bft) S 180 1,1 C 1,7 C 4,2 km/h (1 Bft)
19.11.2013 19:00 1,7 C 96 % 1004,3 hPa 0,0 l/m 2,4 km/h (1 Bft) W-SW 247 1,1 C 1,7 C 5,0 km/h (1 Bft)
19.11.2013 19:05 1,7 C 96 % 1004,2 hPa 0,0 l/m 4,0 km/h (1 Bft) S-SO 157 1,1 C 0,7 C 6,3 km/h (2 Bft)
19.11.2013 19:10 1,7 C 96 % 1004,2 hPa 0,0 l/m 4,7 km/h (1 Bft) S-SW 202 1,1 C 0,4 C 6,4 km/h (2 Bft)
19.11.2013 19:15 1,6 C 96 % 1004,2 hPa 0,0 l/m 4,2 km/h (1 Bft) S-SO 157 1,0 C 0,6 C 8,5 km/h (2 Bft)
19.11.2013 19:20 1,6 C 96 % 1004,2 hPa 0,0 l/m 4,2 km/h (1 Bft) S-SW 202 1,0 C 0,5 C 4,0 km/h (1 Bft)
19.11.2013 19:25 1,6 C 96 % 1004,1 hPa 0,0 l/m 3,9 km/h (1 Bft) S 180 1,0 C 0,7 C 2,9 km/h (1 Bft)
19.11.2013 19:30 1,6 C 96 % 1004,1 hPa 0,0 l/m 2,9 km/h (1 Bft) S 180 1,0 C 1,2 C 0,0 km/h (0 Bft)
19.11.2013 19:35 1,6 C 97 % 1004,1 hPa 0,0 l/m 3,7 km/h (1 Bft) S 180 1,2 C 0,8 C 3,5 km/h (1 Bft)
19.11.2013 19:40 1,6 C 97 % 1004,1 hPa 0,0 l/m 3,9 km/h (1 Bft) SO 135 1,2 C 0,7 C 4,3 km/h (1 Bft)
19.11.2013 19:45 1,6 C 97 % 1004,3 hPa 0,0 l/m 4,0 km/h (1 Bft) S 180 1,2 C 0,6 C 6,1 km/h (2 Bft)
19.11.2013 19:50 1,6 C 97 % 1004,3 hPa 0,0 l/m 4,5 km/h (1 Bft) S-SO 157 1,2 C 0,3 C 6,1 km/h (2 Bft)
19.11.2013 19:55 1,6 C 97 % 1004,3 hPa 0,0 l/m 4,5 km/h (1 Bft) S 180 1,2 C 0,4 C 4,2 km/h (1 Bft)
19.11.2013 20:00 1,6 C 97 % 1004,3 hPa 0,0 l/m 4,0 km/h (1 Bft) S-SW 202 1,2 C 0,7 C 1,9 km/h (1 Bft)
19.11.2013 20:05 1,6 C 97 % 1004,2 hPa 0,0 l/m 3,1 km/h (1 Bft) S 180 1,2 C 1,3 C 2,7 km/h (1 Bft)
19.11.2013 20:10 1,6 C 97 % 1004,2 hPa 0,0 l/m 2,7 km/h (1 Bft) S 180 1,2 C 1,5 C 4,5 km/h (1 Bft)
19.11.2013 20:15 1,6 C 97 % 1004,2 hPa 0,0 l/m 2,4 km/h (1 Bft) S 180 1,2 C 1,6 C 3,7 km/h (1 Bft)
19.11.2013 20:20 1,6 C 97 % 1004,2 hPa 0,0 l/m 2,7 km/h (1 Bft) S 180 1,2 C 1,5 C 5,8 km/h (2 Bft)
19.11.2013 20:25 1,5 C 97 % 1004,3 hPa 0,0 l/m 4,2 km/h (1 Bft) S 180 1,1 C 0,6 C 5,8 km/h (2 Bft)
19.11.2013 20:30 1,6 C 97 % 1004,3 hPa 0,0 l/m 4,3 km/h (1 Bft) S 180 1,2 C 0,6 C 5,3 km/h (1 Bft)
19.11.2013 20:35 1,6 C 97 % 1004,3 hPa 0,0 l/m 2,9 km/h (1 Bft) SO 135 1,2 C 1,4 C 4,5 km/h (1 Bft)
19.11.2013 20:40 1,6 C 97 % 1004,3 hPa 0,0 l/m 2,6 km/h (1 Bft) S 180 1,2 C 1,6 C 3,1 km/h (1 Bft)
19.11.2013 20:45 1,6 C 97 % 1004,2 hPa 0,0 l/m 2,6 km/h (1 Bft) S-SW 202 1,2 C 1,6 C 2,6 km/h (1 Bft)
19.11.2013 20:50 1,6 C 97 % 1004,2 hPa 0,0 l/m 2,1 km/h (1 Bft) S 180 1,2 C 1,6 C 0,0 km/h (0 Bft)
19.11.2013 20:55 1,6 C 97 % 1004,2 hPa 0,0 l/m 1,0 km/h (0 Bft) S 180 1,2 C 1,7 C 2,6 km/h (1 Bft)
19.11.2013 21:00 1,6 C 97 % 1004,2 hPa 0,0 l/m 0,6 km/h (0 Bft) W-SW 247 1,2 C 1,7 C 0,0 km/h (0 Bft)
19.11.2013 21:05 1,7 C 97 % 1004,1 hPa 0,0 l/m 0,6 km/h (0 Bft) S 180 1,3 C 1,7 C 0,0 km/h (0 Bft)
19.11.2013 21:10 1,7 C 97 % 1004,1 hPa 0,0 l/m 0,3 km/h (0 Bft) SO 135 1,3 C 1,7 C 0,0 km/h (0 Bft)
19.11.2013 21:15 1,7 C 97 % 1004,1 hPa 0,0 l/m 0,3 km/h (0 Bft) N-NO 22 1,3 C 1,7 C 0,0 km/h (0 Bft)
19.11.2013 21:20 1,7 C 97 % 1004,1 hPa 0,0 l/m 0,2 km/h (0 Bft) SO 135 1,3 C 1,7 C 0,0 km/h (0 Bft)
19.11.2013 21:25 1,7 C 97 % 1004,3 hPa 0,0 l/m 0,5 km/h (0 Bft) S-SW 202 1,3 C 1,7 C 2,1 km/h (1 Bft)
19.11.2013 21:30 1,8 C 97 % 1004,3 hPa 0,0 l/m 0,6 km/h (0 Bft) SW 225 1,4 C 1,8 C 0,0 km/h (0 Bft)
19.11.2013 21:35 1,8 C 97 % 1004,3 hPa 0,0 l/m 1,4 km/h (1 Bft) S-SW 202 1,4 C 1,8 C 0,0 km/h (0 Bft)
19.11.2013 21:40 1,8 C 97 % 1004,3 hPa 0,0 l/m 1,1 km/h (1 Bft) S-SO 157 1,4 C 1,8 C 0,0 km/h (0 Bft)
19.11.2013 21:45 1,8 C 97 % 1004,3 hPa 0,0 l/m 0,3 km/h (0 Bft) S 180 1,4 C 1,8 C 0,0 km/h (0 Bft)
19.11.2013 21:50 1,8 C 97 % 1004,3 hPa 0,0 l/m 1,0 km/h (0 Bft) S-SW 202 1,4 C 1,9 C 4,5 km/h (1 Bft)
19.11.2013 21:55 1,8 C 97 % 1004,3 hPa 0,0 l/m 1,9 km/h (1 Bft) W-SW 247 1,4 C 1,9 C 3,9 km/h (1 Bft)
19.11.2013 22:00 1,8 C 97 % 1004,3 hPa 0,0 l/m 1,3 km/h (1 Bft) S 180 1,4 C 1,9 C 0,0 km/h (0 Bft)
19.11.2013 22:05 1,8 C 97 % 1004,5 hPa 0,0 l/m 0,3 km/h (0 Bft) S-SW 202 1,4 C 1,9 C 0,0 km/h (0 Bft)
19.11.2013 22:10 1,9 C 97 % 1004,5 hPa 0,0 l/m 0,0 km/h (0 Bft) W-SW 247 1,5 C 1,9 C 0,0 km/h (0 Bft)
19.11.2013 22:15 1,9 C 97 % 1004,5 hPa 0,0 l/m 0,0 km/h (0 Bft) S 180 1,5 C 1,9 C 0,0 km/h (0 Bft)
19.11.2013 22:20 1,9 C 97 % 1004,5 hPa 0,0 l/m 0,0 km/h (0 Bft) S 180 1,5 C 2,0 C 0,0 km/h (0 Bft)
19.11.2013 22:25 1,9 C 97 % 1004,3 hPa 0,0 l/m 0,0 km/h (0 Bft) S 180 1,5 C 2,0 C 0,0 km/h (0 Bft)
19.11.2013 22:30 1,9 C 97 % 1004,3 hPa 0,0 l/m 0,3 km/h (0 Bft) S-SW 202 1,5 C 2,0 C 3,7 km/h (1 Bft)
19.11.2013 22:35 1,9 C 97 % 1004,3 hPa 0,0 l/m 1,6 km/h (1 Bft) S 180 1,5 C 2,0 C 2,1 km/h (1 Bft)
19.11.2013 22:40 1,9 C 97 % 1004,3 hPa 0,0 l/m 1,6 km/h (1 Bft) W-SW 247 1,5 C 2,0 C 0,0 km/h (0 Bft)
19.11.2013 22:45 2,0 C 97 % 1004,4 hPa 0,0 l/m 1,0 km/h (0 Bft) S-SO 157 1,6 C 2,1 C 6,1 km/h (2 Bft)
19.11.2013 22:50 2,0 C 97 % 1004,4 hPa 0,0 l/m 1,8 km/h (1 Bft) S-SW 202 1,6 C 2,1 C 3,5 km/h (1 Bft)
19.11.2013 22:55 2,0 C 97 % 1004,4 hPa 0,0 l/m 3,4 km/h (1 Bft) S 180 1,6 C 1,6 C 4,0 km/h (1 Bft)
19.11.2013 23:00 2,0 C 97 % 1004,4 hPa 0,0 l/m 2,9 km/h (1 Bft) S 180 1,6 C 1,9 C 2,6 km/h (1 Bft)
19.11.2013 23:05 2,0 C 97 % 1004,5 hPa 0,0 l/m 2,9 km/h (1 Bft) S 180 1,6 C 1,9 C 3,1 km/h (1 Bft)
19.11.2013 23:10 2,1 C 97 % 1004,5 hPa 0,0 l/m 3,4 km/h (1 Bft) S 180 1,7 C 1,6 C 6,3 km/h (2 Bft)
19.11.2013 23:15 2,1 C 97 % 1004,5 hPa 0,0 l/m 4,7 km/h (1 Bft) S 180 1,7 C 0,9 C 8,7 km/h (2 Bft)
19.11.2013 23:20 2,1 C 97 % 1004,5 hPa 0,0 l/m 6,1 km/h (2 Bft) S 180 1,7 C 0,3 C 8,0 km/h (2 Bft)
19.11.2013 23:25 2,1 C 97 % 1004,7 hPa 0,0 l/m 7,7 km/h (2 Bft) S-SW 202 1,7 C -1,6 C 12,6 km/h (3 Bft)
19.11.2013 23:30 2,0 C 97 % 1004,7 hPa 0,0 l/m 8,4 km/h (2 Bft) S 180 1,6 C -2,4 C 8,0 km/h (2 Bft)
19.11.2013 23:35 2,0 C 97 % 1004,7 hPa 0,0 l/m 9,0 km/h (2 Bft) S 180 1,6 C -3,1 C 16,3 km/h (3 Bft)
19.11.2013 23:40 2,0 C 97 % 1004,7 hPa 0,0 l/m 8,0 km/h (2 Bft) S 180 1,6 C -2,0 C 7,4 km/h (2 Bft)
19.11.2013 23:45 1,9 C 97 % 1004,6 hPa 0,0 l/m 7,4 km/h (2 Bft) S-SO 157 1,5 C -1,1 C 6,8 km/h (2 Bft)
19.11.2013 23:50 1,9 C 97 % 1004,6 hPa 0,0 l/m 6,8 km/h (2 Bft) S 180 1,5 C -0,3 C 5,0 km/h (1 Bft)
19.11.2013 23:55 1,9 C 97 % 1004,6 hPa 0,0 l/m 5,8 km/h (2 Bft) S 180 1,5 C 0,3 C 8,0 km/h (2 Bft)
_ Min-Zeit 03:15 14:45 21:20 - 22:25 - - 03:15 23:35 22:40
Minimum _ -0,7 C 89 % 1004,1 hPa - 0,0 km/h (0 Bft) - - -1,3 C -3,1 C 0,0 km/h (0 Bft)
_ Max-Zeit 10:00 23:55 00:00 23:55 23:35 - - 09:55 10:00 23:35
Maximum _ 6,7 C 97 % 1009,1 hPa 0,0 l/m 9,0 km/h
S (2 Bft)
- - 5,2 C 8,1 C 16,3 km/h
S (3 Bft)
Durchschnitt _ 2,2 C 95 % 1005,2 hPa #0,0 l/m 1,9 km/h (1 Bft) S - 1,5 C 2,3 C 2,5 km/h (1 Bft)